EW6103 Weather Reports


time (UTC)temp
F
wind
direction
speed
knots
gust
knots
rain 1hr
in
rain 24hr
in
rain mn
in
humidity
%
barometer
mb
20260504050012 53 90 0.0 1.7 0.00 0.00 0.00 59 1013.3
20260504045007 53 90 0.0 1.7 0.00 0.00 0.00 59 1013.3
20260504043010 53 90 0.0 1.7 0.00 0.00 0.00 59 1013.3
20260504042013 53 90 0.0 1.7 0.00 0.00 0.00 59 1013.3
20260504040013 53 90 0.0 1.7 0.00 0.00 0.00 59 1013.3
20260504035009 54 135 0.9 1.7 0.00 0.00 0.00 56 1013.1
20260504034009 55 90 0.9 1.7 0.00 0.00 0.00 56 1013.0
20260504033009 55 90 0.9 3.5 0.00 0.00 0.00 55 1013.1
20260504031008 56 135 1.7 3.5 0.00 0.00 0.00 52 1013.0
20260504030013 56 90 2.6 4.3 0.00 0.00 0.00 51 1012.9
20260504025008 57 45 2.6 5.2 0.00 0.00 0.00 50 1012.8
20260504024009 57 90 3.5 6.1 0.00 0.00 0.00 50 1012.7
20260504023010 57 0 3.5 7.0 0.00 0.00 0.00 50 1012.6
20260504022011 57 90 3.5 5.2 0.00 0.00 0.00 50 1012.6
20260504021009 57 90 2.6 5.2 0.00 0.00 0.00 50 1012.7
20260504015008 57 90 2.6 6.1 0.00 0.00 0.00 50 1012.8
20260504014009 57 135 2.6 5.2 0.00 0.00 0.00 50 1012.8
20260504013009 57 90 1.7 3.5 0.00 0.00 0.00 51 1012.6
20260504012009 57 90 1.7 3.5 0.00 0.00 0.00 50 1012.7
20260504011013 57 90 1.7 4.3 0.00 0.00 0.00 50 1012.6
20260504010012 58 90 1.7 3.5 0.00 0.00 0.00 49 1012.6
20260504005008 58 90 3.5 6.1 0.00 0.00 0.00 48 1012.4
20260504004008 58 90 2.6 5.2 0.00 0.00 0.00 49 1012.6
20260504003010 58 90 2.6 4.3 0.00 0.00 0.00 48 1012.5
20260504002009 58 135 2.6 4.3 0.00 0.00 0.00 48 1012.5
20260504001009 58 90 2.6 4.3 0.00 0.00 0.00 48 1012.5
20260504000012 58 90 2.6 5.2 0.00 0.00 0.00 48 1012.6
20260503235006 58 90 2.6 4.3 0.00 0.00 0.00 48 1012.6
20260503234008 58 90 1.7 6.1 0.00 0.00 0.00 49 1012.6
20260503233010 58 90 1.7 3.5 0.00 0.00 0.00 49 1012.7
20260503231015 62 90 2.6 5.2 0.00 0.00 0.00 49 1013.0
20260503225007 62 90 2.6 5.2 0.00 0.00 0.00 49 1013.0
20260503223007 62 90 2.6 5.2 0.00 0.00 0.00 49 1013.0
20260503221009 62 90 2.6 5.2 0.00 0.00 0.00 49 1013.0
20260503220014 62 90 2.6 5.2 0.00 0.00 0.00 49 1013.0
20260503215007 62 90 2.6 5.2 0.00 0.00 0.00 49 1013.0
20260503214008 62 90 2.6 5.2 0.00 0.00 0.00 49 1013.0
20260503213007 62 90 2.6 5.2 0.00 0.00 0.00 49 1013.0
20260503212008 62 90 2.6 5.2 0.00 0.00 0.00 49 1013.0
20260503210012 62 90 2.6 5.2 0.00 0.00 0.00 49 1013.0
20260503205009 62 90 2.6 5.2 0.00 0.00 0.00 49 1013.0
20260503204009 61 90 2.6 5.2 0.00 0.00 0.00 49 1013.0
20260503203011 61 90 1.7 3.5 0.00 0.00 0.00 50 1013.1
20260503202010 61 135 1.7 3.5 0.00 0.00 0.00 48 1013.1
20260503201009 62 135 2.6 5.2 0.00 0.00 0.00 48 1012.9
20260503200012 62 90 2.6 3.5 0.00 0.00 0.00 46 1013.2
20260503195009 63 135 2.6 3.5 0.00 0.00 0.00 46 1013.1
20260503194012 63 135 3.5 5.2 0.00 0.00 0.00 45 1013.0
20260503193010 63 135 3.5 5.2 0.00 0.00 0.00 46 1013.0
20260503192009 62 0 1.7 3.5 0.00 0.00 0.00 46 1012.9
20260503191008 62 135 1.7 3.5 0.00 0.00 0.00 47 1013.0
20260503190013 62 90 0.9 3.5 0.00 0.00 0.00 47 1012.9
20260503185009 63 135 0.9 2.6 0.00 0.00 0.00 45 1012.9
20260503184006 65 90 0.9 3.5 0.00 0.00 0.00 43 1012.7
20260503183010 66 180 1.7 3.5 0.00 0.00 0.00 41 1012.5
20260503182009 68 135 2.6 4.3 0.00 0.00 0.00 37 1012.3
20260503181010 69 180 3.5 6.1 0.00 0.00 0.00 36 1012.2
20260503175009 70 180 2.6 7.8 0.00 0.00 0.00 36 1012.1
20260503174009 71 180 3.5 6.1 0.00 0.00 0.00 35 1011.9
20260503173009 72 135 3.5 7.8 0.00 0.00 0.00 34 1012.0
20260503172008 73 180 3.5 7.8 0.00 0.00 0.00 33 1011.9
20260503151008 79 135 4.3 9.6 0.00 0.00 0.00 28 1011.9
20260503131008 80 90 3.5 9.6 0.00 0.00 0.00 29 1013.1
20260503081008 69 180 3.5 7.8 0.00 0.00 0.00 41 1016.8
20260503071009 65 180 3.5 6.1 0.00 0.00 0.00 41 1017.1
20260503055009 57 45 1.7 3.5 0.00 0.00 0.00 60 1017.5
20260503054009 55 45 0.9 1.7 0.00 0.00 0.00 64 1017.5